Location: �quirre
(50.4736°N, 2.2351°E)
Time: 10:17:24
(UTC+00:00)

Cosmos 2227 Rocket - Pass Details

Date: 07 August 2020
Orbit: 840 x 844 km, 71.0° (Epoch: 21 September)

Event Time Altitude Azimuth Distance (km) Brightness Sun altitude
Exits shadow 01:33:06 32° 171° (S) 1,415 2.9 -19.9°
Maximum altitude 01:35:28 53° 112° (ESE) 1,030 2.6 -19.8°
Drops below altitude 10° 01:40:58 10° 37° (NE) 2,473 5.8 -19.4°
Sets 01:43:28 0° 33° (NNE) 3,412 7.0 -19.2°
